Tracking 29495 objects as of 7-Sep-2024
HD Live streaming from Space Station
objects crossing your sky now

FENGYUN 1C DEB

Track FENGYUN 1C DEB now!
10-day predictions


NORAD ID: 30453
Int'l Code: 1999-025AFQ
Perigee: 744.1 km
Apogee: 923.4 km
Inclination: 98.8 °
Period: 101.4 minutes
Semi major axis: 7204 km
RCS: 0.0229 m2 (small)
Launch date: May 10, 1999
Source: People's Republic of China (PRC)
Launch site: Taiyaun Space Center, China (TSC)

Note: This is SATELLITE DEBRIS
Your satellite tracking list
Your tracking list is empty




NASA's NSSDC Master Catalog

Two Line Element Set (TLE):
1 30453U 99025AFQ 24250.40816177  .00013437  00000-0  58961-2 0  9996
2 30453  98.8498 315.0459 0124420 120.1868  13.0687 14.19634421906600
Source of the keplerian elements: AFSPC